[[{"header":{"parameterUnit":"m.s-1","parameterCategory":1,"la1":30.2991,"la2":30.254,"lo1":-89.0895,"lo2":-89.0444,"dy":0.0017,"dx":0.0017,"nx":28,"ny":28,"refTime":"2025-07-03T21:00:00:Z","depth":0,"parameterNumber":2,"parameterNumberName":"U-component_of_WINDS"},"data":[0,0,0,0,0,0,0,0,0,0,0,0,0,0,0,0,0,0,0,0,0,0,0,0,0,0,0,0,0,0,0,0,0,0,0,0,0,0,0,0,0,0,0,0,0,0,0,0,0,0,0,0,0,0,0,0,0,0,-3.1381,-3.138,0,-3.136,-3.136,-3.136,-3.1287,-3.1286,-3.1284,-3.1283,-3.1263,-3.1264,-3.1266,0,0,0,0,0,0,0,0,0,0,0,0,0,-3.1359,-3.136,-3.1381,-3.138,-3.138,-3.136,-3.136,-3.136,-3.1288,-3.1286,-3.1284,-3.1282,-3.1263,-3.1264,-3.1266,0,0,0,0,0,0,0,0,0,0,0,0,0,-3.1357,-3.136,-3.1381,-3.1342,-3.1338,-3.136,-3.136,-3.136,-3.1288,-3.1286,-3.1283,-3.1281,-3.1263,-3.1264,-3.1266,-3.1325,0,0,-3.127,-3.1271,0,0,0,0,0,0,0,0,-3.1357,-3.1358,-3.1348,-3.1344,-3.134,-3.1324,-3.1345,-3.1348,-3.1289,-3.1307,-3.1283,-3.128,-3.1286,-3.1285,-3.1287,-3.1324,-3.1323,-3.1271,-3.1272,-3.1272,-3.1273,0,0,0,0,0,0,0,-3.1357,-3.1358,-3.1373,-3.1348,-3.1343,-3.1326,-3.1323,-3.1346,-3.1311,-3.1305,-3.13,-3.1299,-3.1283,-3.1286,-3.1286,-3.1323,-3.1271,-3.1272,-3.1273,-3.1273,-3.1409,-3.1411,0,0,0,0,0,0,-3.1363,-3.1359,-3.1373,-3.1372,-3.1343,-3.1328,-3.1325,-3.1332,-3.131,-3.1304,-3.1301,-3.1295,-3.1284,-3.1284,-3.1285,-3.1354,-3.1272,-3.1274,-3.1275,-3.1406,-3.1409,-3.1412,0,0,0,0,0,0,-3.1363,-3.1365,-3.1374,-3.1364,-3.1364,-3.1331,-3.134,-3.1333,-3.1335,-3.1307,-3.13,-3.1309,-3.1282,-3.1283,-3.1316,-3.1352,-3.1274,-3.1276,-3.1403,-3.1407,-3.1411,-3.1491,0,0,0,0,0,0,-3.1362,-3.1365,-3.1387,-3.1365,-3.1365,-3.1405,-3.1342,-3.1334,-3.1337,-3.133,-3.1313,-3.1308,-3.128,-3.1314,-3.1317,-3.1353,-3.1277,-3.14,-3.1405,-3.141,-3.1485,-3.1497,-3.1508,0,0,0,0,0,-3.1362,-3.141,-3.1388,-3.139,-3.1391,-3.1407,-3.1407,-3.1374,-3.1341,-3.1362,-3.1345,-3.1308,-3.1347,-3.1318,-3.1321,-3.1357,-3.1397,-3.1403,-3.1409,-3.148,-3.1495,-3.1508,0,0,0,0,0,0,-3.1437,-3.1406,-3.1382,-3.1424,-3.1419,-3.1395,-3.1421,-3.139,-3.1394,-3.1387,-3.1347,-3.1343,-3.1383,-3.1373,-3.1341,-3.1414,-3.1366,-3.1373,-3.1419,-3.1433,-3.1444,-3.1446,-3.1278,0,0,0,0,0,-3.1458,-3.1473,-3.1446,-3.1486,-3.1485,-3.1454,-3.1459,-3.1434,-3.1427,-3.1425,-3.1409,-3.1404,-3.1415,-3.1423,-3.1432,-3.1483,-3.1479,-3.151,-3.1522,-3.1531,-3.1538,-3.1566,-3.1579,-3.1432,-3.1432,-3.1432,0,0,-3.1503,-3.1488,-3.15,-3.1501,-3.1494,-3.1511,-3.1452,-3.1472,-3.1485,-3.1428,-3.1458,-3.1447,-3.1439,-3.1481,-3.1499,-3.1475,-3.1578,-3.1539,-3.1546,-3.1548,-3.1573,-3.1587,-3.16,-3.1436,-3.1435,-3.1435,0,0,-3.1593,-3.1583,-3.1615,-3.161,-3.16,-3.1579,-3.1587,-3.1568,-3.1558,-3.1588,-3.1545,-3.156,-3.158,-3.1576,-3.1577,-3.1668,-3.1635,-3.1672,-3.1732,-3.1759,-3.1771,-3.1781,-3.1815,-3.1827,-3.1678,-3.1679,-3.1679,0,-3.1649,-3.1673,-3.1636,-3.166,-3.1662,-3.1611,-3.1645,-3.1641,-3.1635,-3.1638,-3.161,-3.1635,-3.1626,-3.1668,-3.169,-3.1692,-3.1701,-3.1674,-3.1772,-3.1782,-3.1791,-3.1822,-3.1835,-3.1683,-3.1683,-3.1682,-3.1682,0,-3.1744,-3.1761,-3.1789,-3.1785,-3.179,-3.1819,-3.1787,-3.1797,-3.1773,-3.1755,-3.1787,-3.1774,-3.178,-3.1788,-3.1764,-3.1827,-3.1812,-3.1779,-3.173,-3.181,-3.1839,-3.1851,-3.169,-3.1688,-3.1687,-3.1686,0,0,-3.188,-3.1855,-3.1866,-3.1864,-3.185,-3.1863,-3.189,-3.1896,-3.1906,-3.1904,-3.1926,-3.1945,-3.1914,-3.1915,-3.189,-3.1915,-3.1989,-3.1878,-3.1877,-3.19,-3.206,-3.2086,-3.21,-3.1967,-3.1969,-3.1971,-3.2061,0,-3.1966,-3.2011,-3.1979,-3.2029,-3.2046,-3.1998,-3.2022,-3.2016,-3.2001,-3.2014,-3.1997,-3.2011,-3.1969,-3.197,-3.1992,-3.1975,-3.2021,-3.1968,-3.1989,-3.199,-3.1993,-3.2115,-3.2142,-3.2227,-3.2072,-3.2074,-3.2075,0,-3.2073,-3.2076,-3.2128,-3.2111,-3.2117,-3.2139,-3.2142,-3.2154,-3.2148,-3.2135,-3.2137,-3.2106,-3.2133,-3.2085,-3.2122,-3.2087,-3.2094,-3.2087,-3.209,-3.2091,-3.2038,-3.2121,-3.2254,-3.2267,-3.2092,-3.2091,-3.209,0,-3.2169,-3.2185,-3.2218,-3.2218,-3.22,-3.2216,-3.221,-3.22,-3.2206,-3.221,-3.2213,-3.222,-3.2224,-3.223,-3.2202,-3.217,-3.2244,-3.2193,-3.2235,-3.2236,-3.2253,-3.2252,-3.239,-3.2256,-3.2256,-3.2256,-3.2255,0,-3.2269,-3.2303,-3.2261,-3.2282,-3.2319,-3.2283,-3.2321,-3.2309,-3.2302,-3.2321,-3.228,-3.2298,-3.226,-3.2275,-3.2253,-3.2288,-3.229,-3.2281,-3.2275,-3.2286,-3.2287,-3.229,-3.2284,-3.2259,-3.2258,-3.2258,-3.2257,0,-3.2382,-3.2355,-3.2389,-3.2369,-3.2365,-3.2393,-3.2377,-3.2396,-3.2378,-3.2402,-3.2406,-3.2379,-3.2394,-3.2367,-3.2379,-3.2365,-3.2414,-3.2398,-3.2416,-3.2412,-3.2456,-3.2453,-3.2601,-3.262,-3.2473,-3.2475,-3.2476,0,-3.2448,-3.2473,-3.2456,-3.2465,-3.2461,-3.2476,-3.2482,-3.2448,-3.2456,-3.2452,-3.2472,-3.2484,-3.2492,-3.2519,-3.2501,-3.2511,-3.2496,-3.2547,-3.2497,-3.2507,-3.2498,-3.2497,-3.25,-3.2558,-3.2559,-3.2561,-3.2562,0,-3.2568,-3.2554,-3.2564,-3.257,-3.2579,-3.2582,-3.2582,-3.2592,-3.2556,-3.2568,-3.2583,-3.2589,-3.2602,-3.2615,-3.2621,-3.2614,-3.2583,-3.2578,-3.2588,-3.2599,-3.2609,-3.2606,-3.2445,-3.2575,-3.2573,-3.2572,-3.2572,-3.2571,-3.266,-3.2681,-3.2673,-3.2686,-3.2682,-3.2684,-3.2701,-3.2686,-3.2698,-3.2706,-3.2685,-3.2706,-3.27,-3.2704,-3.2702,-3.2718,-3.2696,-3.2711,-3.2715,-3.2719,-3.2727,-3.2606,-3.2719,-3.2719,-3.2718,-3.2718,-3.2718,0,-3.2779,-3.2772,-3.2784,-3.2786,-3.2797,-3.2766,-3.2765,-3.2776,-3.2795,-3.2792,-3.2801,-3.282,-3.2833,-3.2816,-3.2826,-3.2843,-3.2829,-3.2847,-3.2846,-3.2845,-3.2746,-3.2736,-3.2858,-3.2858,-3.2858,-3.2858,-3.2858,-3.2858,-3.2843,-3.2877,-3.2862,-3.2895,-3.2887,-3.2907,-3.2909,-3.2911,-3.2909,-3.2931,-3.2942,-3.2931,-3.2923,-3.2933,-3.2944,-3.2938,-3.2945,-3.2968,-3.2958,-3.2866,-3.2852,-3.2839,-3.283,-3.297,-3.297,-3.3057,-3.3057,-3.3058]},{"header":{"parameterUnit":"m.s-1","parameterCategory":1,"la1":30.2991,"la2":30.254,"lo1":-89.0895,"lo2":-89.0444,"dy":0.0017,"dx":0.0017,"nx":28,"ny":28,"refTime":"2025-07-03T21:00:00:Z","depth":0,"parameterNumber":3,"parameterNumberName":"V-component_of_WINDS"},"data":[0,0,0,0,0,0,0,0,0,0,0,0,0,0,0,0,0,0,0,0,0,0,0,0,0,0,0,0,0,0,0,0,0,0,0,0,0,0,0,0,0,0,0,0,0,0,0,0,0,0,0,0,0,0,0,0,0,0,1.6095,1.6095,0,1.6104,1.6104,1.6104,1.6158,1.6159,1.616,1.6162,1.6165,1.6164,1.6163,0,0,0,0,0,0,0,0,0,0,0,0,0,1.6119,1.6118,1.6095,1.6095,1.6095,1.6104,1.6104,1.6104,1.6157,1.6159,1.6161,1.6162,1.6166,1.6164,1.6163,0,0,0,0,0,0,0,0,0,0,0,0,0,1.6116,1.6118,1.6095,1.6123,1.6125,1.6104,1.6104,1.6104,1.6157,1.6159,1.6161,1.6163,1.6166,1.6164,1.6163,1.6113,0,0,1.6158,1.6157,0,0,0,0,0,0,0,0,1.6116,1.6115,1.6118,1.6121,1.6124,1.6132,1.6114,1.6107,1.6157,1.6145,1.6162,1.6164,1.6152,1.6152,1.6149,1.6113,1.6114,1.6158,1.6157,1.6156,1.6155,0,0,0,0,0,0,0,1.6116,1.6115,1.6098,1.6118,1.6122,1.6133,1.6135,1.6113,1.6137,1.6146,1.615,1.6151,1.6154,1.615,1.6149,1.6114,1.6158,1.6156,1.6155,1.6154,1.6037,1.6035,0,0,0,0,0,0,1.6113,1.6115,1.6098,1.6098,1.6125,1.6131,1.6133,1.6127,1.6138,1.6141,1.6149,1.6153,1.6152,1.6151,1.615,1.6091,1.6156,1.6154,1.6153,1.6039,1.6036,1.6034,0,0,0,0,0,0,1.6113,1.6111,1.6097,1.6108,1.6107,1.6129,1.6121,1.6126,1.6123,1.614,1.6144,1.6141,1.6154,1.6152,1.6122,1.6092,1.6153,1.6152,1.6041,1.6038,1.6035,1.5974,0,0,0,0,0,0,1.6114,1.6111,1.6093,1.6107,1.6106,1.6071,1.612,1.6125,1.612,1.6126,1.6134,1.6137,1.6155,1.6124,1.612,1.6091,1.6151,1.6044,1.604,1.6036,1.5979,1.5969,1.5961,0,0,0,0,0,1.6115,1.6075,1.6092,1.609,1.6085,1.6069,1.6068,1.6092,1.6118,1.6099,1.6111,1.6137,1.6097,1.6121,1.6117,1.6086,1.6046,1.6041,1.6036,1.5983,1.5971,1.5961,0,0,0,0,0,0,1.6055,1.6077,1.6096,1.606,1.6062,1.6078,1.6055,1.6079,1.6072,1.6077,1.6106,1.6107,1.6072,1.6077,1.6103,1.6038,1.6076,1.607,1.6036,1.6025,1.6017,1.6015,1.6149,0,0,0,0,0,1.6038,1.6025,1.6044,1.601,1.6011,1.6033,1.6027,1.6045,1.6048,1.6048,1.6057,1.6057,1.6045,1.6036,1.6025,1.5981,1.5982,1.5958,1.5949,1.5941,1.5935,1.591,1.5899,1.6018,1.6018,1.6018,0,0,1.6001,1.6012,1.6002,1.5998,1.6002,1.5986,1.6033,1.6014,1.6002,1.6045,1.6017,1.6024,1.6026,1.5988,1.5971,1.599,1.5903,1.5935,1.5929,1.5927,1.5904,1.5893,1.5883,1.6015,1.6015,1.6016,0,0,1.5927,1.5935,1.5907,1.591,1.5916,1.5932,1.5925,1.5937,1.5944,1.5917,1.5949,1.5934,1.5912,1.5912,1.5909,1.5836,1.5859,1.5832,1.5784,1.5759,1.575,1.5742,1.5713,1.5703,1.5826,1.5826,1.5826,0,1.588,1.5859,1.5889,1.5868,1.5865,1.5906,1.5876,1.5878,1.5879,1.5875,1.5898,1.5871,1.5876,1.5837,1.582,1.5817,1.5808,1.5829,1.5749,1.5741,1.5734,1.5707,1.5697,1.5822,1.5823,1.5823,1.5823,0,1.5801,1.5785,1.5762,1.5764,1.5759,1.5734,1.5758,1.5749,1.5768,1.5781,1.5752,1.5759,1.575,1.5743,1.5761,1.5707,1.5719,1.5745,1.5782,1.5719,1.5694,1.5684,1.5817,1.5819,1.582,1.582,0,0,1.5686,1.5706,1.5697,1.5698,1.5709,1.5697,1.5673,1.5667,1.5657,1.5658,1.5637,1.5619,1.5643,1.5639,1.5658,1.5637,1.5576,1.5665,1.5666,1.5646,1.5515,1.5493,1.5481,1.5593,1.5591,1.559,1.5514,0,1.5613,1.5575,1.5601,1.5559,1.5544,1.5583,1.5563,1.5566,1.5577,1.5565,1.5578,1.5563,1.5598,1.5596,1.5577,1.5587,1.5549,1.5594,1.5571,1.557,1.5567,1.5469,1.5446,1.5374,1.5505,1.5503,1.5502,0,1.5521,1.5519,1.5475,1.5489,1.5484,1.5465,1.5461,1.545,1.5454,1.5464,1.5461,1.5485,1.5461,1.55,1.5467,1.5496,1.5489,1.5493,1.5491,1.5487,1.553,1.546,1.5352,1.534,1.5487,1.5489,1.549,0,1.5439,1.5426,1.5397,1.5398,1.5413,1.5399,1.5404,1.5411,1.5405,1.5401,1.5398,1.539,1.5386,1.5379,1.54,1.5427,1.5363,1.5404,1.5368,1.5367,1.535,1.535,1.5236,1.535,1.535,1.535,1.535,0,1.5353,1.5324,1.5361,1.5343,1.5311,1.5342,1.5309,1.5319,1.5324,1.5308,1.5342,1.5325,1.5355,1.5341,1.5357,1.5326,1.5324,1.533,1.5334,1.5325,1.5324,1.5318,1.5323,1.5347,1.5348,1.5348,1.5349,0,1.5254,1.5278,1.525,1.5268,1.5272,1.5247,1.5262,1.5245,1.526,1.5239,1.5235,1.5257,1.5243,1.5264,1.5251,1.5262,1.5218,1.5231,1.5217,1.522,1.5181,1.5183,1.5058,1.5042,1.5168,1.5166,1.5165,0,1.5196,1.5175,1.5191,1.5184,1.5188,1.5175,1.517,1.52,1.5193,1.5196,1.5179,1.5168,1.516,1.5134,1.5148,1.5138,1.5149,1.5106,1.5148,1.5139,1.5146,1.5145,1.5143,1.5096,1.5095,1.5094,1.5093,0,1.509,1.5103,1.5096,1.5092,1.5085,1.5083,1.5084,1.5075,1.5106,1.5096,1.5083,1.5077,1.5065,1.5052,1.5047,1.505,1.5075,1.508,1.5071,1.506,1.5052,1.5053,1.5191,1.5082,1.5083,1.5084,1.5084,1.5085,1.5008,1.4991,1.5,1.499,1.4994,1.4994,1.4979,1.4993,1.4983,1.4976,1.4994,1.4976,1.4981,1.4976,1.4977,1.4962,1.498,1.4967,1.4963,1.4959,1.4952,1.5057,1.4961,1.4961,1.4962,1.4962,1.4962,0,1.4902,1.491,1.4901,1.4901,1.4893,1.4921,1.4923,1.4913,1.4898,1.4901,1.4893,1.4877,1.4866,1.4879,1.487,1.4855,1.4866,1.4851,1.4851,1.4851,1.4937,1.4945,1.4842,1.4842,1.4842,1.4842,1.4842,1.4842,1.4845,1.4817,1.4831,1.4805,1.4813,1.4797,1.4796,1.4795,1.4798,1.4779,1.477,1.478,1.4787,1.4778,1.4768,1.4772,1.4766,1.4746,1.4754,1.4833,1.4845,1.4856,1.4864,1.4745,1.4745,1.4669,1.4668,1.4668]}]]